{"data":{"norad_id":59959,"epoch":"2026-05-25T01:53:01.861728Z","epoch_age_seconds":71481,"freshness":"FRESH","line1":"1 59959U 24107Q   26145.07849377  .00002070  00000+0  81987-4 0  9999","line2":"2 59959  53.1606  70.5913 0001208  82.9519 277.1619 15.30199748111496","mean_motion":15.30199748,"eccentricity":0.0001208,"inclination_deg":53.1606,"raan_deg":70.5913,"arg_perigee_deg":82.9519,"mean_anomaly_deg":277.1619,"bstar":8.1987e-5,"rev_number":11149,"period_min":94.105361204124,"perigee_km":474.38793682512,"apogee_km":476.04370686688,"semimajor_km":6853.352821846,"source":"CELESTRAK","updated_at":"2026-05-25T13:38:19.129460Z"}}